H1 CPF 2 NER 2021 10 19 9 292 01 glonass122 H2 1004103 9122 37139 2021 10 19 0 0 0 2021 10 22 23 45 0 900 1 1 0 0 0 1 H9 10 0 59506 0.00000 0 19868496.067 15958013.887 2190858.066 10 0 59506 900.00000 0 20004988.339 15910538.161 -995346.993 10 0 59506 1800.00000 0 19819956.288 15627792.909 -4162378.767 10 0 59506 2700.00000 0 19288461.040 15157954.699 -7249233.617 10 0 59506 3600.00000 0 18397375.889 14554459.619 -10196446.011 10 0 59506 4500.00000 0 17146121.798 13873605.475 -12947207.191 10 0 59506 5400.00000 0 15546899.947 13172050.026 -15448435.971 10 0 59506 6300.00000 0 13624410.432 12504307.775 -17651783.256 10 0 59506 7200.00000 0 11415066.680 11920348.062 -19514552.731 10 0 59506 8100.00000 0 8965735.131 11463393.339 -21000521.414 10 0 59506 9000.00000 0 6332048.835 11168008.911 -22080644.988 10 0 59506 9900.00000 0 3576360.955 11058564.087 -22733634.344 10 0 59506 10800.00000 0 765419.030 11148130.264 -22946391.479 10 0 59506 11700.00000 0 -2032147.230 11437864.107 -22714294.845 10 0 59506 12600.00000 0 -4748423.282 11916904.601 -22041326.402 10 0 59506 13500.00000 0 -7318786.437 12562791.817 -20940035.137 10 0 59506 14400.00000 0 -9684355.768 13342393.557 -19431334.573 10 0 59506 15300.00000 0 -11794212.978 14213304.561 -17544134.845 10 0 59506 16200.00000 0 -13607300.403 15125662.456 -15314813.309 10 0 59506 17100.00000 0 -15093914.838 16024306.085 -12786531.106 10 0 59506 18000.00000 0 -16236732.042 16851186.109 -10008406.908 10 0 59506 18900.00000 0 -17031316.337 17547925.683 -7034562.677 10 0 59506 19800.00000 0 -17486091.631 18058421.295 -3923059.772 10 0 59506 20700.00000 0 -17621773.477 18331370.881 -734747.121 10 0 59506 21600.00000 0 -17470285.623 18322618.584 2467954.270 10 0 59506 22500.00000 0 -17073207.488 17997212.895 5622304.015 10 0 59506 23400.00000 0 -16479820.001 17331087.103 8666504.428 10 0 59506 24300.00000 0 -15744835.410 16312287.608 11540943.809 10 0 59506 25200.00000 0 -14925910.696 14941695.626 14189393.171 10 0 59506 26100.00000 0 -14081053.725 13233210.487 16560129.880 10 0 59506 27000.00000 0 -13266035.649 11213386.673 18606963.915 10 0 59506 27900.00000 0 -12531922.117 8920540.753 20290145.213 10 0 59506 28800.00000 0 -11922829.819 6403367.718 21577133.839 10 0 59506 29700.00000 0 -11474004.111 3719127.050 22443218.479 10 0 59506 30600.00000 0 -11210298.512 931477.010 22871972.635 10 0 59506 31500.00000 0 -11145118.671 -1891950.052 22855541.766 10 0 59506 32400.00000 0 -11279872.739 -4682128.635 22394758.526 10 0 59506 33300.00000 0 -11603948.039 -7371269.064 21499086.870 10 0 59506 34200.00000 0 -12095211.440 -9895385.411 20186399.156 10 0 59506 35100.00000 0 -12721008.884 -12196697.156 18482593.499 10 0 59506 36000.00000 0 -13439618.980 -14225767.321 16421061.267 10 0 59506 36900.00000 0 -14202097.224 -15943291.584 14042017.107 10 0 59506 37800.00000 0 -14954431.931 -17321468.011 11391705.831 10 0 59506 38700.00000 0 -15639920.894 -18344894.670 8521502.230 10 0 59506 39600.00000 0 -16201669.515 -19010961.860 5486921.312 10 0 59506 40500.00000 0 -16585106.865 -19329726.255 2346557.483 10 0 59506 41400.00000 0 -16740416.052 -19323275.200 -839028.042 10 0 59506 42300.00000 0 -16624779.192 -19024609.585 -4008451.725 10 0 59506 43200.00000 0 -16204345.070 -18476092.939 -7100664.084 10 0 59506 44100.00000 0 -15455838.927 -17727531.408 -10056098.032 10 0 59506 45000.00000 0 -14367748.178 -16833963.810 -12817789.372 10 0 59506 45900.00000 0 -12941034.801 -15853252.420 -15332450.327 10 0 59506 46800.00000 0 -11189343.880 -14843572.966 -17551477.680 10 0 59506 47700.00000 0 -9138697.815 -13860906.491 -19431877.909 10 0 59506 48600.00000 0 -6826686.139 -12956635.798 -20937092.952 10 0 59506 49500.00000 0 -4301180.945 -12175345.434 -22037711.495 10 0 59506 50400.00000 0 -1618627.260 -11552916.407 -22712052.115 10 0 59506 51300.00000 0 1158025.022 -11114995.499 -22946606.334 10 0 59506 52200.00000 0 3961666.009 -10875904.402 -22736331.615 10 0 59506 53100.00000 0 6723553.615 -10838036.479 -22084786.386 10 0 59506 54000.00000 0 9375922.150 -10991769.297 -21004101.749 10 0 59506 54900.00000 0 11854564.893 -11315899.929 -19514787.229 10 0 59506 55800.00000 0 14101283.545 -11778588.150 -17645370.973 10 0 59506 56700.00000 0 16066101.770 -12338770.971 -15431878.179 10 0 59506 57600.00000 0 17709148.642 -12947991.289 -12917155.015 10 0 59506 58500.00000 0 19002130.686 -13552564.927 -10150049.061 10 0 59506 59400.00000 0 19929328.016 -14095994.626 -7184460.942 10 0 59506 60300.00000 0 20488070.028 -14521527.766 -4078285.312 10 0 59506 61200.00000 0 20688668.413 -14774747.172 -892262.774 10 0 59506 62100.00000 0 20553809.035 -14806081.910 2311233.109 10 0 59506 63000.00000 0 20117428.172 -14573127.784 5469447.363 10 0 59506 63900.00000 0 19423121.617 -14042675.086 8520505.895 10 0 59506 64800.00000 0 18522156.150 -13192353.947 11404660.397 10 0 59506 65700.00000 0 17471170.523 -12011824.523 14065488.022 10 0 59506 66600.00000 0 16329666.881 -10503459.633 16451019.238 10 0 59506 67500.00000 0 15157402.411 -8682490.089 18514769.431 10 0 59506 68400.00000 0 14011794.803 -6576606.805 20216652.576 10 0 59506 69300.00000 0 12945453.710 -4225037.699 21523758.524 10 0 59506 70200.00000 0 12003943.838 -1677140.157 22410979.238 10 0 59506 71100.00000 0 11223874.188 1009429.688 22861473.140 10 0 59506 72000.00000 0 10631392.837 3770891.823 22866960.642 10 0 59506 72900.00000 0 10241148.348 6539768.688 22427847.827 10 0 59506 73800.00000 0 10055758.272 9247460.619 21553178.871 10 0 59506 74700.00000 0 10065803.347 11826862.820 20260421.187 10 0 59506 75600.00000 0 10250343.662 14214915.842 18575090.403 10 0 59506 76500.00000 0 10577931.364 16354985.387 16530224.927 10 0 59506 77400.00000 0 11008074.219 18198975.219 14165722.379 10 0 59506 78300.00000 0 11493086.170 19709088.881 11527552.137 10 0 59506 79200.00000 0 11980245.844 20859170.831 8666859.972 10 0 59506 80100.00000 0 12414171.993 21635575.132 5638982.239 10 0 59506 81000.00000 0 12739316.759 22037529.252 2502388.078 10 0 59506 81900.00000 0 12902473.463 22076980.980 -682431.105 10 0 59506 82800.00000 0 12855195.601 21777937.092 -3854105.013 10 0 59506 83700.00000 0 12556027.649 21175322.755 -6951540.699 10 0 59506 84600.00000 0 11972456.123 20313409.543 -9915071.741 10 0 59506 85500.00000 0 11082500.654 19243876.988 -12687580.506 10 0 59507 0.00000 0 9875879.346 18023587.176 -15215574.196 10 0 59507 900.00000 0 8354698.717 16712162.470 -17450197.462 10 0 59507 1800.00000 0 6533639.832 15369466.677 -19348160.635 10 0 59507 2700.00000 0 4439628.287 14053090.203 -20872571.664 10 0 59507 3600.00000 0 2110999.972 12815943.646 -21993653.124 10 0 59507 4500.00000 0 -403807.260 11704058.207 -22689331.938 10 0 59507 5400.00000 0 -3047986.021 10754684.272 -22945689.592 10 0 59507 6300.00000 0 -5758448.427 9994767.883 -22757262.698 10 0 59507 7200.00000 0 -8468188.982 9439870.186 -22127185.943 10 0 59507 8100.00000 0 -11108826.516 9093577.182 -21067171.947 10 0 59507 9000.00000 0 -13613221.850 8947427.337 -19597325.200 10 0 59507 9900.00000 0 -15918063.266 8981363.168 -17745790.401 10 0 59507 10800.00000 0 -17966311.916 9164690.854 -15548238.748 10 0 59507 11700.00000 0 -19709403.761 9457509.983 -13047199.282 10 0 59507 12600.00000 0 -21109113.599 9812554.914 -10291246.115 10 0 59507 13500.00000 0 -22139000.250 10177370.578 -7334056.014 10 0 59507 14400.00000 0 -22785369.170 10496730.073 -4233354.342 10 0 59507 15300.00000 0 -23047709.238 10715189.849 -1049770.768 10 0 59507 16200.00000 0 -22938583.259 10779671.252 2154371.188 10 0 59507 17100.00000 0 -22482975.814 10641955.217 5316304.534 10 0 59507 18000.00000 0 -21717126.122 10260980.280 8374081.322 10 0 59507 18900.00000 0 -20686896.682 9604842.381 11267819.126 10 0 59507 19800.00000 0 -19445749.088 8652408.200 13940903.658 10 0 59507 20700.00000 0 -18052415.835 7394471.040 16341120.775 10 0 59507 21600.00000 0 -16568370.071 5834398.766 18421693.367 10 0 59507 22500.00000 0 -15055203.585 3988245.944 20142201.280 10 0 59507 23400.00000 0 -13572026.599 1884326.179 21469365.677 10 0 59507 24300.00000 0 -12173000.932 -437735.919 22377682.953 10 0 59507 25200.00000 0 -10905111.144 -2928431.218 22849897.214 10 0 59507 26100.00000 0 -9806266.901 -5530208.917 22877304.176 10 0 59507 27000.00000 0 -8903814.466 -8179656.562 22459883.295 10 0 59507 27900.00000 0 -8213516.863 -10809924.652 21606258.512 10 0 59507 28800.00000 0 -7739041.812 -13353293.800 20333491.456 10 0 59507 29700.00000 0 -7471974.682 -15743777.737 18666714.061 10 0 59507 30600.00000 0 -7392351.735 -17919654.951 16638610.219 10 0 59507 31500.00000 0 -7469687.382 -19825825.701 14288758.667 10 0 59507 32400.00000 0 -7664449.176 -21415899.293 11662851.227 10 0 59507 33300.00000 0 -7929916.323 -22653928.239 8811802.321 10 0 59507 34200.00000 0 -8214342.491 -23515720.778 5790767.155 10 0 59507 35100.00000 0 -8463331.891 -23989680.773 2658086.987 10 0 59507 36000.00000 0 -8622329.616 -24077143.172 -525819.283 10 0 59507 36900.00000 0 -8639123.140 -23792193.605 -3699597.363 10 0 59507 37800.00000 0 -8466251.883 -23160981.290 -6802113.659 10 0 59507 38700.00000 0 -8063225.716 -22220554.545 -9773605.242 10 0 59507 39600.00000 0 -7398461.148 -21017267.101 -12556803.892 10 0 59507 40500.00000 0 -6450855.219 -19604820.412 -15098014.986 10 0 59507 41400.00000 0 -5210931.523 -18042021.534 -17348132.778 10 0 59507 42300.00000 0 -3681509.749 -16390347.551 -19263574.344 10 0 59507 43200.00000 0 -1877868.936 -14711415.391 -20807115.732 10 0 59507 44100.00000 0 172605.272 -13064459.880 -21948615.077 10 0 59507 45000.00000 0 2431278.384 -11503923.170 -22665608.848 10 0 59507 45900.00000 0 4849598.522 -10077254.591 -22943769.170 10 0 59507 46800.00000 0 7370850.827 -8823012.265 -22777211.960 10 0 59507 47700.00000 0 9932266.222 -7769346.252 -22168647.832 10 0 59507 48600.00000 0 12467400.761 -6932928.011 -21129370.110 10 0 59507 49500.00000 0 14908689.546 -6318373.176 -19679077.015 10 0 59507 50400.00000 0 17190070.572 -5918184.550 -17845528.138 10 0 59507 51300.00000 0 19249569.637 -5713220.506 -15664038.618 10 0 59507 52200.00000 0 21031737.561 -5673671.716 -13176817.900 10 0 59507 53100.00000 0 22489835.762 -5760507.044 -10432163.763 10 0 59507 54000.00000 0 23587675.866 -5927328.597 -7483525.892 10 0 59507 54900.00000 0 24301032.904 -6122557.437 -4388456.842 10 0 59507 55800.00000 0 24618569.435 -6291856.072 -1207471.647 10 0 59507 56700.00000 0 24542229.013 -6380682.629 1997159.992 10 0 59507 57600.00000 0 24087080.519 -6336864.938 5162662.750 10 0 59507 58500.00000 0 23280619.228 -6113081.386 8227018.281 10 0 59507 59400.00000 0 22161554.658 -5669139.144 11130213.167 10 0 59507 60300.00000 0 20778138.116 -4973949.276 13815444.356 10 0 59507 61200.00000 0 19186103.259 -4007111.871 16230255.294 10 0 59507 62100.00000 0 17446309.901 -2760041.875 18327578.077 10 0 59507 63000.00000 0 15622193.867 -1236586.915 20066659.637 10 0 59507 63900.00000 0 13777133.546 546888.875 21413853.185 10 0 59507 64800.00000 0 11971846.398 2561957.530 22343259.848 10 0 59507 65700.00000 0 10261926.185 4769095.611 22837209.295 10 0 59507 66600.00000 0 8695624.505 7119125.323 22886572.034 10 0 59507 67500.00000 0 7311968.406 9555065.810 22490899.993 10 0 59507 68400.00000 0 6139290.481 12014315.209 21658395.615 10 0 59507 69300.00000 0 5194229.580 14431070.994 20405713.155 10 0 59507 70200.00000 0 4481239.748 16738887.103 18757598.960 10 0 59507 71100.00000 0 3992623.485 18873261.799 16746380.274 10 0 59507 72000.00000 0 3709083.562 20774149.777 14411314.603 10 0 59507 72900.00000 0 3600766.364 22388296.228 11797813.697 10 0 59507 73800.00000 0 3628749.901 23671298.600 8956557.984 10 0 59507 74700.00000 0 3746911.976 24589313.483 5942518.776 10 0 59507 75600.00000 0 3904099.065 25120340.956 2813906.653 10 0 59507 76500.00000 0 4046504.877 25255036.062 -368934.808 10 0 59507 77400.00000 0 4120159.669 24997016.240 -3544670.081 10 0 59507 78300.00000 0 4073427.343 24362653.804 -6652127.578 10 0 59507 79200.00000 0 3859407.434 23380363.051 -9631450.359 10 0 59507 80100.00000 0 3438143.111 22089411.673 -12425221.859 10 0 59507 81000.00000 0 2778544.141 20538304.958 -14979547.422 10 0 59507 81900.00000 0 1859945.083 18782808.196 -17245073.079 10 0 59507 82800.00000 0 673233.444 16883687.151 -19177923.869 10 0 59507 83700.00000 0 -778500.546 14904257.783 -20740545.132 10 0 59507 84600.00000 0 -2479821.959 12907844.288 -21902431.503 10 0 59507 85500.00000 0 -4403326.145 10955248.693 -22640729.679 10 0 59508 0.00000 0 -6510518.923 9102335.439 -22940702.800 10 0 59508 900.00000 0 -8753171.012 7397829.329 -22796046.203 10 0 59508 1800.00000 0 -11075091.994 5881420.854 -22209046.047 10 0 59508 2700.00000 0 -13414257.981 4582255.280 -21190575.598 10 0 59508 3600.00000 0 -15705205.126 3517872.687 -19759925.584 10 0 59508 4500.00000 0 -17881592.673 2693644.559 -17944468.826 10 0 59508 5400.00000 0 -19878829.631 2102733.274 -15779162.335 10 0 59508 6300.00000 0 -21636655.136 1726578.748 -13305893.573 10 0 59508 7200.00000 0 -23101562.962 1535893.992 -10572681.365 10 0 59508 8100.00000 0 -24228966.044 1492128.993 -7632745.554 10 0 59508 9000.00000 0 -24985006.916 1549341.484 -4543463.055 10 0 59508 9900.00000 0 -25347934.361 1656394.728 -1365231.420 10 0 59508 10800.00000 0 -25308985.096 1759387.225 1839736.277 10 0 59508 11700.00000 0 -24872730.666 1804208.335 5008659.157 10 0 59508 12600.00000 0 -24056873.325 1739107.652 8079451.178 10 0 59508 13500.00000 0 -22891499.132 1517164.994 10991970.536 10 0 59508 14400.00000 0 -21417820.660 1098552.157 13689227.892 10 0 59508 15300.00000 0 -19686464.395 452486.981 16118526.550 10 0 59508 16200.00000 0 -17755377.869 -441205.785 18232509.812 10 0 59508 17100.00000 0 -15687447.960 -1590994.543 19990093.363 10 0 59508 18000.00000 0 -13547933.884 -2993048.797 21357263.748 10 0 59508 18900.00000 0 -11401825.514 -4631179.376 22307727.681 10 0 59508 19800.00000 0 -9311239.781 -6477312.007 22823400.816 10 0 59508 20700.00000 0 -7332965.130 -8492472.158 22894728.448 10 0 59508 21600.00000 0 -5516256.213 -10628237.495 22520834.581 10 0 59508 22500.00000 0 -3900969.216 -12828594.863 21709499.406 10 0 59508 23400.00000 0 -2516112.791 -15032122.208 20476968.725 10 0 59508 24300.00000 0 -1378871.180 -17174403.187 18847601.929 10 0 59508 25200.00000 0 -494135.856 -19190573.400 16853367.983 10 0 59508 26100.00000 0 145439.327 -21017892.686 14533201.291 10 0 59508 27000.00000 0 558866.219 -22598237.808 11932231.452 10 0 59508 27900.00000 0 775761.427 -23880413.988 9100902.641 10 0 59508 28800.00000 0 834843.668 -24822191.738 6093999.888 10 0 59508 29700.00000 0 782054.287 -25391987.247 2969600.601 10 0 59508 30600.00000 0 668380.541 -25570119.318 -212029.512 10 0 59508 31500.00000 0 547472.701 -25349593.123 -3389576.285 10 0 59508 32400.00000 0 473153.899 -24736380.164 -6501832.743 10 0 59508 33300.00000 0 496925.535 -23749183.972 -9488850.543 10 0 59508 34200.00000 0 665571.011 -22418701.516 -12293067.382 10 0 59508 35100.00000 0 1018956.490 -20786410.347 -14860391.108 10 0 59508 36000.00000 0 1588119.559 -18902930.218 -17141221.968 10 0 59508 36900.00000 0 2393725.265 -16826024.963 -19091395.195 10 0 59508 37800.00000 0 3444954.559 -14618324.744 -20673027.393 10 0 59508 38700.00000 0 4738873.178 -12344860.160 -21855251.312 10 0 59508 39600.00000 0 6260309.884 -10070507.718 -22614825.077 10 0 59508 40500.00000 0 7982252.713 -7857450.224 -22936603.621 10 0 59508 41400.00000 0 9866750.936 -5762755.697 -22813861.890 10 0 59508 42300.00000 0 11866289.613 -3836174.652 -22248461.534 10 0 59508 43200.00000 0 13925583.891 -2118247.367 -21250855.185 10 0 59508 44100.00000 0 15983722.131 -638801.011 -19839925.102 10 0 59508 45000.00000 0 17976571.420 584098.809 -18042655.962 10 0 59508 45900.00000 0 19839346.783 1544695.952 -15893644.876 10 0 59508 46800.00000 0 21509237.137 2249565.618 -13434455.150 10 0 59508 47700.00000 0 22927977.036 2717106.934 -10712824.093 10 0 59508 48600.00000 0 24044254.198 2976525.842 -7781738.765 10 0 59508 49500.00000 0 24815848.620 3066350.328 -4698397.200 10 0 59508 50400.00000 0 25211409.630 3032540.906 -1523076.003 10 0 59508 51300.00000 0 25211792.404 2926277.750 1682071.954 10 0 59508 52200.00000 0 24810894.331 2801520.749 4854263.775 10 0 59508 53100.00000 0 24015953.506 2712449.317 7931349.106 10 0 59508 54000.00000 0 22847295.472 2710894.607 10853060.869 10 0 59508 54900.00000 0 21337538.822 2843877.131 13562226.192 10 0 59508 55800.00000 0 19530294.376 3151358.064 16005910.603 10 0 59508 56700.00000 0 17478414.972 3664302.696 18136470.552 10 0 59508 57600.00000 0 15241872.396 4403140.202 19912492.003 10 0 59508 58500.00000 0 12885353.949 5376685.893 21299595.948 10 0 59508 59400.00000 0 10475682.469 6581571.324 22271095.406 10 0 59508 60300.00000 0 8079170.297 8002205.169 22808492.340 10 0 59508 61200.00000 0 5759019.336 9611264.486 22901806.757 10 0 59508 62100.00000 0 3572876.038 11370693.342 22549734.249 10 0 59508 63000.00000 0 1570642.220 13233164.381 21759631.865 10 0 59508 63900.00000 0 -207369.271 15143939.727 20547335.649 10 0 59508 64800.00000 0 -1731860.617 17043051.644 18936816.362 10 0 59508 65700.00000 0 -2985501.622 18867710.824 16959682.673 10 0 59508 66600.00000 0 -3963373.639 20554841.556 14654543.587 10 0 59508 67500.00000 0 -4672891.031 22043638.801 12066244.037 10 0 59508 68400.00000 0 -5133207.697 23278042.113 9244989.266 10 0 59508 69300.00000 0 -5374137.021 24209025.482 6245375.234 10 0 59508 70200.00000 0 -5434633.083 24796610.282 3125343.325 10 0 59508 71100.00000 0 -5360898.293 25011520.201 -54921.498 10 0 59508 72000.00000 0 -5204197.158 24836411.726 -3234129.277 10 0 59508 72900.00000 0 -5018467.362 24266631.052 -6351040.414 10 0 59508 73800.00000 0 -4857827.014 23310467.232 -9345617.801 10 0 59508 74700.00000 0 -4774080.830 21988891.538 -12160155.838 10 0 59508 75600.00000 0 -4814327.886 20334793.392 -14740367.090 10 0 59508 76500.00000 0 -5018769.539 18391743.160 -17036407.964 10 0 59508 77400.00000 0 -5418808.176 16212330.960 -19003825.586 10 0 59508 78300.00000 0 -6035516.095 13856147.517 -20604409.236 10 0 59508 79200.00000 0 -6878539.322 11387487.554 -21806930.934 10 0 59508 80100.00000 0 -7945483.949 8872867.714 -22587761.112 10 0 59508 81000.00000 0 -9221813.529 6378458.919 -22931347.054 10 0 59508 81900.00000 0 -10681265.484 3967537.189 -22830543.599 10 0 59508 82800.00000 0 -12286773.375 1698057.211 -22286787.677 10 0 59508 83700.00000 0 -13991860.894 -379551.234 -21310110.689 10 0 59508 84600.00000 0 -15742453.563 -2224271.982 -19918985.356 10 0 59508 85500.00000 0 -17479035.763 -3805996.270 -18140006.679 10 0 59509 0.00000 0 -19139065.217 -5106557.202 -16007410.117 10 0 59509 900.00000 0 -20659545.802 -6120259.846 -13562432.108 10 0 59509 1800.00000 0 -21979648.294 -6853880.594 -10852525.997 10 0 59509 2700.00000 0 -23043270.388 -7326136.047 -7930443.244 10 0 59509 3600.00000 0 -23801423.359 -7566640.629 -4853200.040 10 0 59509 4500.00000 0 -24214342.228 -7614397.247 -1680949.018 10 0 59509 5400.00000 0 -24253226.507 -7515885.461 1524220.199 10 0 59509 6300.00000 0 -23901534.332 -7322830.037 4699525.732 10 0 59509 7200.00000 0 -23155772.255 -7089747.381 7782755.901 10 0 59509 8100.00000 0 -22025745.191 -6871377.599 10713521.237 10 0 59509 9000.00000 0 -20534254.975 -6720115.158 13434468.074 10 0 59509 9900.00000 0 -18716260.580 -6683551.071 15892426.654 10 0 59509 10800.00000 0 -16617536.821 -6802234.275 18039468.761 10 0 59509 11700.00000 0 -14292890.307 -7107749.625 19833852.439 10 0 59509 12600.00000 0 -11804010.558 -7621195.357 21240834.484 10 0 59509 13500.00000 0 -9217049.364 -8352124.685 22233335.111 10 0 59509 14400.00000 0 -6600032.353 -9297995.399 22792442.998 10 0 59509 15300.00000 0 -4020212.938 -10444148.871 22907752.814 10 0 59509 16200.00000 0 -1541479.889 -11764316.927 22577531.281 10 0 59509 17100.00000 0 778073.790 -13221632.541 21808711.472 10 0 59509 18000.00000 0 2888321.013 -14770099.195 20616718.531 10 0 59509 18900.00000 0 4748922.278 -16356454.992 19025133.166 10 0 59509 19800.00000 0 6330726.816 -17922351.798 17065202.066 10 0 59509 20700.00000 0 7616699.188 -19406757.343 14775206.921 10 0 59509 21600.00000 0 8602337.437 -20748479.927 12199705.851 10 0 59509 22500.00000 0 9295569.854 -21888711.179 9388662.813 10 0 59509 23400.00000 0 9716138.655 -22773482.298 6396482.159 10 0 59509 24300.00000 0 9894499.568 -23355933.471 3280966.575 10 0 59509 25200.00000 0 9870285.560 -23598304.269 102217.527 10 0 59509 26100.00000 0 9690400.118 -23473564.388 -3078502.020 10 0 59509 27000.00000 0 9406820.006 -22966618.919 -6199922.616 10 0 59509 27900.00000 0 9074198.711 -22075039.421 -9201921.081 10 0 59509 28800.00000 0 8747369.436 -20809291.078 -12026651.131 10 0 59509 29700.00000 0 8478850.370 -19192446.280 -14619632.529 10 0 59509 30600.00000 0 8316454.833 -17259395.280 -16930780.159 10 0 59509 31500.00000 0 8301104.729 -15055584.664 -18915355.120 10 0 59509 32400.00000 0 8464937.897 -12635333.070 -20534821.176 10 0 59509 33300.00000 0 8829788.464 -10059790.611 -21757591.078 10 0 59509 34200.00000 0 9406104.702 -7394623.046 -22559648.629 10 0 59509 35100.00000 0 10192351.663 -4707513.155 -22925034.112 10 0 59509 36000.00000 0 11174926.532 -2065579.842 -22846182.472 10 0 59509 36900.00000 0 12328593.971 467180.248 -22324105.707 10 0 59509 37800.00000 0 13617427.351 2832323.822 -21368413.373 10 0 59509 38700.00000 0 14996220.682 4979164.044 -19997167.653 10 0 59509 39600.00000 0 16412315.796 6866653.192 -18236572.518 10 0 59509 40500.00000 0 17807771.168 8464864.783 -16120499.641 10 0 59509 41400.00000 0 19121783.148 9756011.057 -13689857.293 10 0 59509 42300.00000 0 20293258.332 10734950.624 -10991812.082 10 0 59509 43200.00000 0 21263427.932 11409162.654 -8078877.119 10 0 59509 44100.00000 0 21978391.842 11798186.829 -5007883.732 10 0 59509 45000.00000 0 22391481.904 11932551.601 -1838857.351 10 0 59509 45900.00000 0 22465340.816 11852236.167 1366178.986 10 0 59509 46800.00000 0 22173624.928 11604732.421 4544447.750 10 0 59509 47700.00000 0 21502255.317 11242791.329 7633679.143 10 0 59509 48600.00000 0 20450161.401 10821952.536 10573364.302 10 0 59509 49500.00000 0 19029483.835 10397965.752 13305971.462 10 0 59509 50400.00000 0 17265227.525 10024217.231 15778097.955 10 0 59509 51300.00000 0 15194380.000 9749274.106 17941532.917 10 0 59509 52200.00000 0 12864533.869 9614653.585 19754208.137 10 0 59509 53100.00000 0 10332073.757 9652913.383 21181017.522 10 0 59509 54000.00000 0 7660006.500 9886144.894 22194489.425 10 0 59509 54900.00000 0 4915528.149 10324932.342 22775299.816 10 0 59509 55800.00000 0 2167431.745 10967820.229 22912618.212 10 0 59509 56700.00000 0 -516534.620 11801309.136 22604282.236 10 0 59509 57600.00000 0 -3072249.123 12800377.161 21856800.325 10 0 59509 58500.00000 0 -5441630.307 13929501.945 20685185.615 10 0 59509 59400.00000 0 -7574785.705 15144137.541 19112627.231 10 0 59509 60300.00000 0 -9431808.832 16392581.814 17170007.967 10 0 59509 61200.00000 0 -10984153.686 17618154.480 14895279.958 10 0 59509 62100.00000 0 -12215534.073 18761593.847 12332712.021 10 0 59509 63000.00000 0 -13122314.809 19763572.174 9532024.170 10 0 59509 63900.00000 0 -13713382.693 20567225.415 6547426.402 10 0 59509 64800.00000 0 -14009506.322 21120593.294 3436579.924 10 0 59509 65700.00000 0 -14042214.222 21378869.895 259499.920 10 0 59509 66600.00000 0 -13852239.877 21306373.013 -2922580.373 10 0 59509 67500.00000 0 -13487599.399 20878152.196 -6048364.323 10 0 59509 68400.00000 0 -13001381.873 20081170.061 -9057645.267 10 0 59509 69300.00000 0 -12449343.675 18915008.609 -11892438.667 10 0 59509 70200.00000 0 -11887405.698 17392071.205 -14498073.748 10 0 59509 71100.00000 0 -11369156.181 15537270.879 -16824225.911 10 0 59509 72000.00000 0 -10943461.689 13387216.053 -18825872.037 10 0 59509 72900.00000 0 -10652284.651 10988924.705 -20464151.930 10 0 59509 73800.00000 0 -10528797.928 8398116.876 -21707120.357 10 0 59509 74700.00000 0 -10595875.321 5677152.538 -22530375.503 10 0 59509 75600.00000 0 -10865022.285 2892696.384 -22917551.372 10 0 59509 76500.00000 0 -11335793.704 113202.732 -22860663.404 10 0 59509 77400.00000 0 -11995726.102 -2593678.111 -22360298.697 10 0 59509 78300.00000 0 -12820790.748 -5163666.520 -21425644.586 10 0 59509 79200.00000 0 -13776352.620 -7538287.726 -20074351.927 10 0 59509 80100.00000 0 -14818598.749 -9667072.100 -18332232.418 10 0 59509 81000.00000 0 -15896379.258 -11509428.782 -16232792.507 10 0 59509 81900.00000 0 -16953386.017 -13036112.523 -13816609.884 10 0 59509 82800.00000 0 -17930578.347 -14230219.838 -11130562.265 10 0 59509 83700.00000 0 -18768753.300 -15087670.136 -8226921.833 10 0 59509 84600.00000 0 -19411150.563 -15617149.322 -5162332.289 10 0 59509 85500.00000 0 -19805979.179 -15839516.565 -1996688.987 99